This demonstration page uses our WeatherBlox Daily Observations layout. Learn more.

Left ArrowRight Arrow

36.17497, -115.13722

Hourly Observations for April 10, 2016

Temp ( °F °C ) Dew Point ( °F °C ) Humidity (%) Winds ( mph kmh ) Pressure ( in mb ) Visibility ( mi km ) Precip ( " mm )
12:53 am 00:53 Cloudy with Light Rain 54 12.2 53 11.7 97 97 S 6 9 29.89 1012 10 16.0934 0.04 1.016
1:14 am 01:14 Cloudy 54 12 54 12 100 100 SSE 6 9 29.85 1011 10 16.0934 0 0
1:53 am 01:53 Cloudy 54 12.2 52 11.1 93 93 SSE 15 24 29.91 1013 10 16.0934 0 0.0254
2:03 am 02:03 Cloudy 54 12 52 11 94 94 SE 10 17 29.88 1012 10 16.0934 0 0
2:21 am 02:21 Cloudy 54 12.2 51 10.6 90 90 E 5 7 29.83 1010 10 16.0934 0 0
2:53 am 02:53 Cloudy with Light Rain 53 11.7 49 9.4 86 86 NE 8 13 29.89 1012 10 16.0934 0 0.0254
3:53 am 03:53 Mostly Cloudy 53 11.7 49 9.4 86 86 NNE 5 7 29.87 1012 10 16.0934 0.01 0.254
4:53 am 04:53 Mostly Cloudy 53 11.7 50 10 89 89 WNW 6 9 29.85 1011 10 16.0934 0 0
5:53 am 05:53 Mostly Cloudy 53 11.7 50 10 89 89 SSE 6 9 29.85 1011 10 16.0934 0 0
6:13 am 06:13 Cloudy 53 11.7 51 10.6 93 93 S 7 11 29.83 1010 10 16.0934 0 0
6:53 am 06:53 Partly Cloudy 53 11.7 49 9.4 86 86 SSW 5 7 29.87 1012 10 16.0934 0 0
7:53 am 07:53 Cloudy 54 12.2 49 9.4 83 83 Calm 29.88 1012 10 16.0934 0 0
8:53 am 08:53 Mostly Cloudy 54 12.2 49 9.4 83 83 WSW 3 6 29.89 1012 10 16.0934 0 0
9:53 am 09:53 Cloudy 55 12.8 49 9.4 80 80 SSW 5 7 29.9 1013 10 16.0934 0 0.0254
10:53 am 10:53 Cloudy 56 13.3 50 10 81 81 SSW 5 7 29.92 1013 10 16.0934 0 0.0254
11:53 am 11:53 Cloudy 57 13.9 48 8.9 72 72 Calm 29.91 1013 10 16.0934 0 0.0254
12:53 pm 12:53 Mostly Cloudy 59 15 49 9.4 69 69 S 12 19 29.9 1013 10 16.0934 0 0
1:53 pm 13:53 Cloudy 59 15 50 10 72 72 S 10 17 29.9 1013 10 16.0934 0 0
2:53 pm 14:53 Sunny 60 15.6 48 8.9 65 65 ESE 7 11 29.89 1012 10 16.0934 0 0
3:53 pm 15:53 Sunny 61 16.1 44 6.7 54 54 SE 7 11 29.88 1012 10 16.0934 0 0
4:53 pm 16:53 Sunny 61 16.1 45 7.2 56 56 ENE 5 7 29.89 1012 10 16.0934 0 0
5:53 pm 17:53 Sunny 60 15.6 47 8.3 62 62 E 8 13 29.89 1012 10 16.0934 0 0
6:53 pm 18:53 Sunny 59 15 48 8.9 67 67 E 6 9 29.91 1013 10 16.0934 0 0
7:53 pm 19:53 Clear 58 14.4 49 9.4 72 72 E 6 9 29.93 1014 10 16.0934 0 0
8:53 pm 20:53 Mostly Clear 58 14.4 48 8.9 70 70 E 5 7 29.96 1015 10 16.0934 0 0
9:53 pm 21:53 Mostly Clear 57 13.9 48 8.9 72 72 NE 3 6 29.98 1015 10 16.0934 0 0
10:53 pm 22:53 Clear 56 13.3 49 9.4 77 77 Calm 30 1016 10 16.0934 0 0
11:53 pm 23:53 Mostly Clear 54 12.2 49 9.4 83 83 NNE 3 6 30.01 1016 10 16.0934 0 0

Powered by AerisWeather